Starlink 3709

operational
NORAD ID: 52102 Int'l Des: 2022-029 Owner: SPXS Country: US Constellation: starlink
LEOCIRCULAR

关于 Starlink 3709

正在加载描述...

实时位置

正在加载3D地球...

即将过境

高度历史

Altitude vs Time

uPlot chart will show altitude changes over time

两行轨道根数

1 52102U 22029Q 25353.97731519 -.00000471 00000-0 -11497-4 0 9995
2 52102 53.2185 76.9645 0001298 90.7571 269.3570 15.08843009208754
Epoch: Dec 19, 2025 • Age: 9 hours

当前状态

高度 559.0 km
速度 7.58 km/s
星下点 -52.95°S, 117.52°E
发射日期 Mar 19, 2022
运行时间 3.7 years
类型 internet

技术详情

分类 Payload
质量 297.00 kg
干质量 275.00 kg
总质量 297.00 kg
长度 0.20 m
直径 2.80 m
跨度 9.00 m
形状 Box + pan
制造商 SPXS
平台类型 Starlink
阶段状态 In Orbit
所有者/国家 SPXS/US

大型星座

Loading constellations...